,,,PA_Meas_PMT16A,,PR_Meas_QMR101_102,,RH_Meas_QMH101,,SR_Meas_QMS101,,TA_Meas_QMH101,,GenWind,,GenWind,
date,time,status,PA,status,PR,status,RH,status,SR,status,TA,status,DirAvg,status,SpdAvg,
2012-07-11, 00:00:04,VALID,1000.34,VALID,0,VALID,91.5631,VALID,0,VALID,23.5238,VALID,50,VALID,0,
2012-07-11, 00:01:04,VALID,1000.36,VALID,0,VALID,91.5707,VALID,0,VALID,23.5256,VALID,50,VALID,0,
2012-07-11, 00:02:04,VALID,1000.39,VALID,0,VALID,91.8606,VALID,0.104696,VALID,23.5043,VALID,50,VALID,0,
2012-07-11, 00:03:04,VALID,1000.35,VALID,0,VALID,91.8606,VALID,0,VALID,23.5238,VALID,50,VALID,0,
2012-07-11, 00:04:04,VALID,1000.33,VALID,0,VALID,92.2497,VALID,0,VALID,23.5238,VALID,50,VALID,0,
2012-07-11, 00:05:04,VALID,1000.34,VALID,0,VALID,92.1582,VALID,0,VALID,23.5238,VALID,50,VALID,0.312891,
2012-07-11, 00:06:04,VALID,1000.32,VALID,0,VALID,92.0514,VALID,0.104696,VALID,23.5451,VALID,50,VALID,0.543359,
2012-07-11, 00:07:04,VALID,1000.32,VALID,0,VALID,91.8759,VALID,0,VALID,23.5238,VALID,50,VALID,0.525,
2012-07-11, 00:08:04,VALID,1000.3,VALID,0,VALID,91.853,VALID,0,VALID,23.5238,VALID,50,VALID,0.552344,
2012-07-11, 00:09:04,VALID,1000.33,VALID,0,VALID,91.7233,VALID,0.104696,VALID,23.5238,VALID,50,VALID,0.590625,
2012-07-11, 00:10:04,VALID,1000.31,VALID,0,VALID,91.7996,VALID,0,VALID,23.5433,VALID,50,VALID,0.526953,
2012-07-11, 00:11:04,VALID,1000.32,VALID,0,VALID,91.9293,VALID,0.104696,VALID,23.5628,VALID,50,VALID,0.390625,
2012-07-11, 00:12:04,VALID,1000.29,VALID,0,VALID,91.9903,VALID,0.104696,VALID,23.5628,VALID,50,VALID,0.443359,
2012-07-11, 00:13:04,VALID,1000.29,VALID,0,VALID,91.8377,VALID,0.104696,VALID,23.5628,VALID,50,VALID,0.312891,
2012-07-11, 00:14:04,VALID,1000.3,VALID,0,VALID,91.792,VALID,0,VALID,23.5628,VALID,50,VALID,0.153906,
2012-07-11, 00:15:04,VALID,1000.3,VALID,0,VALID,91.9674,VALID,0,VALID,23.5823,VALID,50,VALID,0.266016,
2012-07-11, 00:16:04,VALID,1000.26,VALID,0,VALID,92.1887,VALID,0,VALID,23.6019,VALID,50,VALID,0.278516,
2012-07-11, 00:17:04,VALID,1000.25,VALID,0,VALID,92.0895,VALID,0,VALID,23.5823,VALID,50,VALID,0.403125,
2012-07-11, 00:18:04,VALID,1000.24,VALID,0,VALID,91.8988,VALID,0.104696,VALID,23.6214,VALID,50,VALID,0.529297,
2012-07-11, 00:19:04,VALID,1000.24,VALID,0,VALID,91.8454,VALID,0,VALID,23.6409,VALID,50,VALID,0.652344,
2012-07-11, 00:20:04,VALID,1000.27,VALID,0,VALID,91.7691,VALID,0,VALID,23.6409,VALID,50,VALID,0.792578,
2012-07-11, 00:21:04,VALID,1000.26,VALID,0,VALID,91.8835,VALID,0,VALID,23.6427,VALID,49,VALID,0.838281,
2012-07-11, 00:22:04,VALID,1000.24,VALID,0,VALID,92.2192,VALID,0.104696,VALID,23.6214,VALID,44,VALID,0.913281,
2012-07-11, 00:23:04,VALID,1000.23,VALID,0,VALID,92.3718,VALID,0,VALID,23.6019,VALID,42,VALID,0.892578,
2012-07-11, 00:24:04,VALID,1000.22,VALID,0,VALID,92.6999,VALID,0,VALID,23.6214,VALID,41,VALID,0.89375,
2012-07-11, 00:25:04,VALID,1000.22,VALID,0,VALID,92.6694,VALID,0,VALID,23.6427,VALID,41,VALID,0.79375,
2012-07-11, 00:26:04,VALID,1000.21,VALID,0,VALID,92.677,VALID,0.104696,VALID,23.6409,VALID,41,VALID,0.740625,
2012-07-11, 00:27:04,VALID,1000.18,VALID,0,VALID,92.7304,VALID,0.104696,VALID,23.6604,VALID,39,VALID,0.281641,
2012-07-11, 00:28:04,VALID,1000.2,VALID,0,VALID,92.7457,VALID,0,VALID,23.7012,VALID,39,VALID,0.00703125,
2012-07-11, 00:29:04,VALID,1000.19,VALID,0,VALID,92.7228,VALID,0,VALID,23.7189,VALID,39,VALID,0.245312,
2012-07-11, 00:30:04,VALID,1000.19,VALID,0,VALID,92.4405,VALID,0,VALID,23.7402,VALID,39,VALID,0.126953,
2012-07-11, 00:31:04,VALID,1000.16,VALID,0,VALID,92.1429,VALID,0,VALID,23.7402,VALID,39,VALID,0,
2012-07-11, 00:32:04,VALID,1000.15,VALID,0,VALID,91.9445,VALID,0,VALID,23.7793,VALID,39,VALID,0.226172,
2012-07-11, 00:33:04,VALID,1000.14,VALID,0,VALID,91.914,VALID,0,VALID,23.8183,VALID,39,VALID,0.144141,
2012-07-11, 00:34:04,VALID,1000.13,VALID,0,VALID,91.5554,VALID,0,VALID,23.8165,VALID,39,VALID,0.344141,
2012-07-11, 00:35:04,VALID,1000.14,VALID,0,VALID,91.0977,VALID,0,VALID,23.836,VALID,39,VALID,0.452734,
2012-07-11, 00:36:04,VALID,1000.13,VALID,0,VALID,90.8383,VALID,0,VALID,23.8768,VALID,39,VALID,0.799219,
2012-07-11, 00:37:04,VALID,1000.12,VALID,0,VALID,91.2121,VALID,0,VALID,23.9159,VALID,39,VALID,0.750781,
2012-07-11, 00:38:04,VALID,1000.13,VALID,0,VALID,91.0137,VALID,0,VALID,23.8945,VALID,39,VALID,0.776953,
2012-07-11, 00:39:04,VALID,1000.12,VALID,0,VALID,90.7238,VALID,0,VALID,23.875,VALID,39,VALID,0.882422,
2012-07-11, 00:40:04,VALID,1000.08,VALID,0,VALID,90.5178,VALID,0,VALID,23.8555,VALID,38,VALID,0.991016,
2012-07-11, 00:41:04,VALID,1000.07,VALID,0,VALID,90.2126,VALID,0,VALID,23.836,VALID,36,VALID,0.940234,
2012-07-11, 00:42:04,VALID,1000.05,VALID,0,VALID,89.6633,VALID,0,VALID,23.8165,VALID,35,VALID,1.02148,
2012-07-11, 00:43:04,VALID,1000.06,VALID,0,VALID,89.4344,VALID,0,VALID,23.8165,VALID,35,VALID,1.2668,
2012-07-11, 00:44:04,VALID,1000.1,VALID,0,VALID,89.6175,VALID,0,VALID,23.8378,VALID,35,VALID,1.19648,
2012-07-11, 00:45:04,VALID,1000.07,VALID,0,VALID,89.8998,VALID,0,VALID,23.8165,VALID,35,VALID,1.17422,
2012-07-11, 00:46:04,VALID,1000.07,VALID,0,VALID,90.4415,VALID,0,VALID,23.8378,VALID,35,VALID,1.10508,
2012-07-11, 00:47:04,VALID,1000.06,VALID,0,VALID,90.7162,VALID,0,VALID,23.7988,VALID,35,VALID,1.08047,
2012-07-11, 00:48:04,VALID,1000.05,VALID,0,VALID,91.174,VALID,0,VALID,23.7793,VALID,35,VALID,0.789844,
2012-07-11, 00:49:04,VALID,1000.03,VALID,0,VALID,91.6851,VALID,0,VALID,23.7793,VALID,35,VALID,0.659375,
2012-07-11, 00:50:04,VALID,1000.01,VALID,0,VALID,91.8911,VALID,0,VALID,23.7384,VALID,35,VALID,0.791016,
2012-07-11, 00:51:04,VALID,1000,VALID,0,VALID,92.1429,VALID,0,VALID,23.7402,VALID,35,VALID,0.598437,
2012-07-11, 00:52:04,VALID,999.976,VALID,0,VALID,92.326,VALID,0,VALID,23.7402,VALID,35,VALID,0.536719,
2012-07-11, 00:53:04,VALID,999.967,VALID,0,VALID,92.5015,VALID,0,VALID,23.7207,VALID,35,VALID,0.584375,
2012-07-11, 00:54:04,VALID,999.956,VALID,0,VALID,92.7075,VALID,0,VALID,23.7402,VALID,35,VALID,0.171875,
2012-07-11, 00:55:04,VALID,999.946,VALID,0,VALID,92.8754,VALID,0,VALID,23.7402,VALID,35,VALID,0,
2012-07-11, 00:56:04,VALID,999.91,VALID,0,VALID,92.9898,VALID,0,VALID,23.7402,VALID,35,VALID,0,
2012-07-11, 00:57:04,VALID,999.894,VALID,0,VALID,93.0432,VALID,0,VALID,23.7207,VALID,35,VALID,0,
2012-07-11, 00:58:04,VALID,999.883,VALID,0,VALID,93.0966,VALID,0,VALID,23.7402,VALID,35,VALID,0,
2012-07-11, 00:59:04,VALID,999.873,VALID,0,VALID,93.1195,VALID,0,VALID,23.7402,VALID,35,VALID,0,
2012-07-11, 01:00:04,VALID,999.835,VALID,0,VALID,93.1653,VALID,0,VALID,23.7402,VALID,35,VALID,0,
2012-07-11, 01:01:04,VALID,999.815,VALID,0,VALID,93.2263,VALID,0,VALID,23.7402,VALID,35,VALID,0,
2012-07-11, 01:02:04,VALID,999.807,VALID,0,VALID,93.3331,VALID,0,VALID,23.7402,VALID,35,VALID,0.228125,
2012-07-11, 01:03:04,VALID,999.786,VALID,0,VALID,93.089,VALID,0.104696,VALID,23.7384,VALID,35,VALID,0.238672,
2012-07-11, 01:04:04,VALID,999.748,VALID,0,VALID,92.9517,VALID,0,VALID,23.7384,VALID,35,VALID,0.133594,
2012-07-11, 01:05:04,VALID,999.774,VALID,0,VALID,92.9898,VALID,0,VALID,23.7793,VALID,35,VALID,0.160547,
2012-07-11, 01:06:04,VALID,999.76,VALID,0,VALID,92.9288,VALID,0,VALID,23.7597,VALID,35,VALID,0.236719,
2012-07-11, 01:07:04,VALID,999.796,VALID,0,VALID,92.7914,VALID,0,VALID,23.7579,VALID,35,VALID,0.410547,
2012-07-11, 01:08:04,VALID,999.805,VALID,0,VALID,92.6846,VALID,0,VALID,23.7793,VALID,35,VALID,0.554688,
2012-07-11, 01:09:04,VALID,999.813,VALID,0,VALID,92.6694,VALID,0,VALID,23.7793,VALID,35,VALID,0.687891,
2012-07-11, 01:10:04,VALID,999.82,VALID,0,VALID,92.3413,VALID,0,VALID,23.7597,VALID,43,VALID,1.27578,
2012-07-11, 01:11:04,VALID,999.858,VALID,0,VALID,92.1734,VALID,0,VALID,23.7597,VALID,43,VALID,1.38867,
2012-07-11, 01:12:04,VALID,999.86,VALID,0,VALID,92.5626,VALID,0,VALID,23.7597,VALID,51,VALID,1.39648,
2012-07-11, 01:13:04,VALID,999.868,VALID,0,VALID,92.7762,VALID,0,VALID,23.7384,VALID,56,VALID,1.53125,
2012-07-11, 01:14:04,VALID,999.859,VALID,0,VALID,93.0814,VALID,0,VALID,23.7793,VALID,56,VALID,1.25273,
2012-07-11, 01:15:04,VALID,999.913,VALID,0,VALID,92.8983,VALID,0,VALID,23.7384,VALID,55,VALID,1.37188,
2012-07-11, 01:16:04,VALID,999.9,VALID,0,VALID,93.0127,VALID,0,VALID,23.7384,VALID,54,VALID,1.51406,
2012-07-11, 01:17:04,VALID,999.915,VALID,0,VALID,92.7457,VALID,0,VALID,23.7597,VALID,47,VALID,1.69687,
2012-07-11, 01:18:04,VALID,999.929,VALID,0,VALID,92.5244,VALID,0,VALID,23.7189,VALID,45,VALID,1.70898,
2012-07-11, 01:19:04,VALID,999.929,VALID,0,VALID,92.616,VALID,0,VALID,23.7384,VALID,36,VALID,1.70586,
2012-07-11, 01:20:04,VALID,999.945,VALID,0,VALID,92.4634,VALID,0,VALID,23.7189,VALID,43,VALID,1.65352,
2012-07-11, 01:21:04,VALID,999.947,VALID,0,VALID,92.5549,VALID,0,VALID,23.6994,VALID,45,VALID,1.5207,
2012-07-11, 01:22:04,VALID,999.951,VALID,0,VALID,92.6541,VALID,0,VALID,23.6799,VALID,51,VALID,1.58867,
2012-07-11, 01:23:04,VALID,999.944,VALID,0,VALID,92.6999,VALID,0,VALID,23.6604,VALID,48,VALID,1.24023,
2012-07-11, 01:24:04,VALID,999.935,VALID,0,VALID,92.8906,VALID,0,VALID,23.6622,VALID,51,VALID,1.22812,
2012-07-11, 01:25:04,VALID,999.96,VALID,0,VALID,92.9974,VALID,0,VALID,23.6427,VALID,56,VALID,1.09414,
2012-07-11, 01:26:04,VALID,999.978,VALID,0,VALID,92.9822,VALID,0,VALID,23.6036,VALID,56,VALID,1.12227,
2012-07-11, 01:27:04,VALID,999.971,VALID,0,VALID,93.089,VALID,0,VALID,23.6019,VALID,56,VALID,0.896094,
2012-07-11, 01:28:04,VALID,999.966,VALID,0,VALID,93.3026,VALID,0,VALID,23.6019,VALID,56,VALID,0.867188,
2012-07-11, 01:29:04,VALID,999.961,VALID,0,VALID,93.4857,VALID,0,VALID,23.6036,VALID,56,VALID,0.871094,
2012-07-11, 01:30:04,VALID,999.95,VALID,0,VALID,93.6765,VALID,0,VALID,23.5823,VALID,56,VALID,0.863672,
2012-07-11, 01:31:04,VALID,999.943,VALID,0,VALID,93.768,VALID,0,VALID,23.5628,VALID,47,VALID,0.724609,
2012-07-11, 01:32:04,VALID,999.908,VALID,0,VALID,93.6994,VALID,0,VALID,23.5433,VALID,41,VALID,0.717188,
2012-07-11, 01:33:04,VALID,999.931,VALID,0,VALID,93.5468,VALID,0,VALID,23.5256,VALID,39,VALID,0.883203,
2012-07-11, 01:34:04,VALID,999.923,VALID,0,VALID,93.5849,VALID,0,VALID,23.5043,VALID,39,VALID,0.567187,
2012-07-11, 01:35:04,VALID,999.915,VALID,0,VALID,93.6154,VALID,0,VALID,23.5043,VALID,27,VALID,0.776172,
2012-07-11, 01:36:04,VALID,999.924,VALID,0,VALID,93.4705,VALID,0,VALID,23.4866,VALID,22,VALID,0.665625,
2012-07-11, 01:37:04,VALID,999.911,VALID,0,VALID,93.4094,VALID,0,VALID,23.4458,VALID,22,VALID,0.65,
2012-07-11, 01:38:04,VALID,999.928,VALID,0,VALID,93.2645,VALID,0,VALID,23.4263,VALID,22,VALID,0.8,
2012-07-11, 01:39:04,VALID,999.901,VALID,0,VALID,93.2034,VALID,0,VALID,23.4475,VALID,22,VALID,0.622656,
2012-07-11, 01:40:04,VALID,999.901,VALID,0,VALID,93.1271,VALID,0,VALID,23.4263,VALID,22,VALID,0.698438,
2012-07-11, 01:41:04,VALID,999.898,VALID,0,VALID,92.9822,VALID,0,VALID,23.4067,VALID,22,VALID,0.907812,
2012-07-11, 01:42:04,VALID,999.888,VALID,0,VALID,92.9898,VALID,0,VALID,23.4067,VALID,22,VALID,0.845703,
2012-07-11, 01:43:04,VALID,999.912,VALID,0,VALID,92.8448,VALID,0,VALID,23.4085,VALID,22,VALID,0.920703,
2012-07-11, 01:44:04,VALID,999.89,VALID,0,VALID,92.7762,VALID,0.104696,VALID,23.4085,VALID,22,VALID,0.822656,
2012-07-11, 01:45:04,VALID,999.94,VALID,0,VALID,92.8448,VALID,0,VALID,23.4067,VALID,33,VALID,1.01641,
2012-07-11, 01:46:04,VALID,999.925,VALID,0,VALID,92.8525,VALID,0,VALID,23.428,VALID,33,VALID,0.948438,
2012-07-11, 01:47:04,VALID,999.909,VALID,0,VALID,92.883,VALID,0,VALID,23.4475,VALID,41,VALID,0.760547,
2012-07-11, 01:48:04,VALID,999.921,VALID,0,VALID,93.15,VALID,0,VALID,23.4671,VALID,53,VALID,0.707812,
2012-07-11, 01:49:04,VALID,999.912,VALID,0,VALID,93.2492,VALID,0,VALID,23.4475,VALID,53,VALID,0.792578,
2012-07-11, 01:50:04,VALID,999.889,VALID,0,VALID,93.3179,VALID,0,VALID,23.4475,VALID,53,VALID,0.65,
2012-07-11, 01:51:04,VALID,999.897,VALID,0,VALID,93.4094,VALID,0,VALID,23.4263,VALID,53,VALID,0.705078,
2012-07-11, 01:52:04,VALID,999.874,VALID,0.5,VALID,93.4552,VALID,0,VALID,23.4263,VALID,51,VALID,0.893359,
2012-07-11, 01:53:04,VALID,999.884,VALID,0,VALID,93.2797,VALID,0,VALID,23.428,VALID,49,VALID,1,
2012-07-11, 01:54:04,VALID,999.921,VALID,0,VALID,93.3408,VALID,0,VALID,23.428,VALID,41,VALID,0.9,
2012-07-11, 01:55:04,VALID,999.903,VALID,0,VALID,93.3942,VALID,0,VALID,23.4085,VALID,39,VALID,0.896094,
2012-07-11, 01:56:04,VALID,999.88,VALID,0,VALID,93.5468,VALID,0,VALID,23.389,VALID,39,VALID,0.791406,
2012-07-11, 01:57:04,VALID,999.909,VALID,0,VALID,93.7528,VALID,0,VALID,23.3677,VALID,39,VALID,0.678516,
2012-07-11, 01:58:04,VALID,999.9,VALID,0,VALID,93.9283,VALID,0,VALID,23.3695,VALID,39,VALID,0.417578,
2012-07-11, 01:59:04,VALID,999.901,VALID,0,VALID,94.0885,VALID,0,VALID,23.3695,VALID,39,VALID,0.388281,
2012-07-11, 02:00:04,VALID,999.887,VALID,0,VALID,94.1877,VALID,0,VALID,23.3482,VALID,39,VALID,0.406641,
2012-07-11, 02:01:04,VALID,999.858,VALID,0,VALID,94.2868,VALID,0,VALID,23.3482,VALID,39,VALID,0.472266,
2012-07-11, 02:02:04,VALID,999.829,VALID,0,VALID,94.4471,VALID,0,VALID,23.4067,VALID,94,VALID,0.586328,
2012-07-11, 02:03:04,VALID,999.819,VALID,0,VALID,94.5234,VALID,0,VALID,23.4067,VALID,94,VALID,0.347656,
2012-07-11, 02:04:04,VALID,999.815,VALID,0,VALID,94.4928,VALID,0,VALID,23.4085,VALID,94,VALID,0.164844,
2012-07-11, 02:05:04,VALID,999.794,VALID,0,VALID,94.47,VALID,0,VALID,23.428,VALID,94,VALID,0.00117188,
2012-07-11, 02:06:04,VALID,999.793,VALID,0,VALID,94.5234,VALID,0,VALID,23.4085,VALID,94,VALID,0.078125,
2012-07-11, 02:07:04,VALID,999.783,VALID,0,VALID,94.531,VALID,0,VALID,23.428,VALID,94,VALID,0.423828,
2012-07-11, 02:08:04,VALID,999.802,VALID,0,VALID,94.5234,VALID,0.104696,VALID,23.4067,VALID,94,VALID,0.491406,
2012-07-11, 02:09:04,VALID,999.779,VALID,0,VALID,94.5081,VALID,0,VALID,23.4458,VALID,146,VALID,0.808203,
2012-07-11, 02:10:04,VALID,999.762,VALID,0,VALID,94.5997,VALID,0,VALID,23.4848,VALID,175,VALID,1.11172,
2012-07-11, 02:11:04,VALID,999.75,VALID,0,VALID,94.6607,VALID,0,VALID,23.5451,VALID,159,VALID,1.07891,
2012-07-11, 02:12:04,VALID,999.729,VALID,0,VALID,94.6378,VALID,0,VALID,23.5823,VALID,181,VALID,1.37617,
2012-07-11, 02:13:04,VALID,999.713,VALID,0.5,VALID,94.531,VALID,0,VALID,23.6214,VALID,174,VALID,1.03398,
2012-07-11, 02:14:04,VALID,999.705,VALID,0,VALID,94.3937,VALID,0,VALID,23.6622,VALID,175,VALID,0.725781,
2012-07-11, 02:15:04,VALID,999.64,VALID,0,VALID,94.1724,VALID,0,VALID,23.6817,VALID,175,VALID,0.612109,
2012-07-11, 02:16:04,VALID,999.646,VALID,0,VALID,93.974,VALID,0,VALID,23.6799,VALID,175,VALID,0.873047,
2012-07-11, 02:17:04,VALID,999.623,VALID,0,VALID,93.8138,VALID,0,VALID,23.7402,VALID,175,VALID,0.865625,
2012-07-11, 02:18:04,VALID,999.619,VALID,0,VALID,93.7146,VALID,0,VALID,23.7597,VALID,175,VALID,0.720703,
2012-07-11, 02:19:05,VALID,999.644,VALID,0,VALID,93.6765,VALID,0,VALID,23.7775,VALID,175,VALID,0.864844,
2012-07-11, 02:20:05,VALID,999.623,VALID,0,VALID,93.6688,VALID,0,VALID,23.8378,VALID,175,VALID,0.494922,
2012-07-11, 02:21:05,VALID,999.612,VALID,0,VALID,93.4934,VALID,0.104696,VALID,23.8573,VALID,175,VALID,0.438281,
2012-07-11, 02:22:05,VALID,999.607,VALID,0,VALID,93.3789,VALID,0.104696,VALID,23.8555,VALID,175,VALID,0.242578,
2012-07-11, 02:23:05,VALID,999.575,VALID,0,VALID,93.3331,VALID,0,VALID,23.8555,VALID,175,VALID,0.680469,
2012-07-11, 02:24:05,VALID,999.6,VALID,0,VALID,93.3103,VALID,0,VALID,23.875,VALID,175,VALID,0.503125,
2012-07-11, 02:25:05,VALID,999.58,VALID,0,VALID,93.1577,VALID,0,VALID,23.8945,VALID,175,VALID,0.624609,
2012-07-11, 02:26:05,VALID,999.577,VALID,0,VALID,92.883,VALID,0,VALID,23.875,VALID,175,VALID,0.434375,
2012-07-11, 02:27:05,VALID,999.583,VALID,0,VALID,92.8525,VALID,0,VALID,23.875,VALID,175,VALID,0.269141,
2012-07-11, 02:28:05,VALID,999.606,VALID,0,VALID,93.0356,VALID,0,VALID,23.875,VALID,175,VALID,0.395312,
2012-07-11, 02:29:05,VALID,999.638,VALID,0,VALID,93.234,VALID,0,VALID,23.8555,VALID,175,VALID,0.366016,
2012-07-11, 02:30:05,VALID,999.651,VALID,0,VALID,93.3789,VALID,0,VALID,23.8555,VALID,175,VALID,0.389844,
2012-07-11, 02:31:05,VALID,999.695,VALID,0,VALID,93.6154,VALID,0,VALID,23.8573,VALID,175,VALID,0.501562,
2012-07-11, 02:32:05,VALID,999.726,VALID,0,VALID,93.7985,VALID,0,VALID,23.8378,VALID,175,VALID,0.602344,
2012-07-11, 02:33:05,VALID,999.737,VALID,0,VALID,93.9893,VALID,0,VALID,23.797,VALID,175,VALID,0.705469,
2012-07-11, 02:34:05,VALID,999.748,VALID,0,VALID,94.1343,VALID,0,VALID,23.797,VALID,168,VALID,0.739844,
2012-07-11, 02:35:05,VALID,999.745,VALID,0,VALID,94.2182,VALID,0,VALID,23.8183,VALID,154,VALID,1.03242,
2012-07-11, 02:36:05,VALID,999.783,VALID,0,VALID,94.3479,VALID,0,VALID,23.8183,VALID,159,VALID,1.13555,
2012-07-11, 02:37:05,VALID,999.795,VALID,0,VALID,94.3937,VALID,0,VALID,23.8165,VALID,160,VALID,1.13633,
2012-07-11, 02:38:05,VALID,999.754,VALID,0,VALID,94.3937,VALID,0,VALID,23.8165,VALID,160,VALID,1.0457,
2012-07-11, 02:39:05,VALID,999.73,VALID,0,VALID,94.3174,VALID,0,VALID,23.8573,VALID,160,VALID,0.862109,
2012-07-11, 02:40:05,VALID,999.729,VALID,0,VALID,94.3784,VALID,0,VALID,23.8768,VALID,160,VALID,0.717188,
2012-07-11, 02:41:05,VALID,999.727,VALID,0,VALID,94.4013,VALID,0,VALID,23.8768,VALID,190,VALID,0.569922,
2012-07-11, 02:42:05,VALID,999.702,VALID,0,VALID,94.3631,VALID,0,VALID,23.8768,VALID,190,VALID,0.556641,
2012-07-11, 02:43:05,VALID,999.696,VALID,0,VALID,94.2411,VALID,0,VALID,23.8768,VALID,205,VALID,1.04766,
2012-07-11, 02:44:05,VALID,999.701,VALID,0,VALID,94.0427,VALID,0,VALID,23.9159,VALID,199,VALID,1.19648,
2012-07-11, 02:45:05,VALID,999.699,VALID,0,VALID,93.913,VALID,0,VALID,23.9354,VALID,192,VALID,1.09141,
2012-07-11, 02:46:05,VALID,999.721,VALID,0,VALID,93.6078,VALID,0,VALID,23.9549,VALID,175,VALID,1.56875,
2012-07-11, 02:47:05,VALID,999.711,VALID,0,VALID,93.4018,VALID,0,VALID,23.9939,VALID,175,VALID,1.11094,
2012-07-11, 02:48:05,VALID,999.728,VALID,0,VALID,93.1729,VALID,0,VALID,23.9939,VALID,186,VALID,1.10312,
2012-07-11, 02:49:05,VALID,999.752,VALID,0,VALID,93.3255,VALID,0,VALID,24.0329,VALID,168,VALID,1.13242,
2012-07-11, 02:50:05,VALID,999.74,VALID,0,VALID,92.7991,VALID,0,VALID,24.0134,VALID,164,VALID,1.63867,
2012-07-11, 02:51:05,VALID,999.779,VALID,0,VALID,92.2268,VALID,0,VALID,23.9939,VALID,162,VALID,1.68828,
2012-07-11, 02:52:05,VALID,999.769,VALID,0,VALID,91.708,VALID,0,VALID,23.9939,VALID,159,VALID,1.98242,
2012-07-11, 02:53:05,VALID,999.762,VALID,0,VALID,91.647,VALID,0,VALID,23.9726,VALID,170,VALID,1.4707,
2012-07-11, 02:54:05,VALID,999.78,VALID,0,VALID,91.8072,VALID,0,VALID,23.9939,VALID,163,VALID,1.60234,
2012-07-11, 02:55:05,VALID,999.762,VALID,0,VALID,91.5173,VALID,0,VALID,23.9549,VALID,172,VALID,1.5625,
2012-07-11, 02:56:05,VALID,999.733,VALID,0,VALID,91.6012,VALID,0,VALID,23.9549,VALID,168,VALID,1.29531,
2012-07-11, 02:57:05,VALID,999.717,VALID,0,VALID,91.4257,VALID,0,VALID,23.914,VALID,168,VALID,1.12109,
2012-07-11, 02:58:05,VALID,999.744,VALID,0,VALID,91.6012,VALID,0,VALID,23.9354,VALID,170,VALID,1.1832,
2012-07-11, 02:59:05,VALID,999.716,VALID,0,VALID,91.853,VALID,0,VALID,23.9354,VALID,174,VALID,1.05938,
2012-07-11, 03:00:05,VALID,999.712,VALID,0,VALID,92.0209,VALID,0,VALID,23.9354,VALID,172,VALID,0.887891,
2012-07-11, 03:01:05,VALID,999.727,VALID,0,VALID,91.8911,VALID,0,VALID,23.8963,VALID,171,VALID,0.748828,
2012-07-11, 03:02:05,VALID,999.75,VALID,0,VALID,91.9751,VALID,0,VALID,23.8963,VALID,171,VALID,0.380078,
2012-07-11, 03:03:05,VALID,999.746,VALID,0,VALID,92.2421,VALID,0,VALID,23.875,VALID,171,VALID,0.117578,
2012-07-11, 03:04:05,VALID,999.755,VALID,0,VALID,92.4405,VALID,0,VALID,23.8768,VALID,171,VALID,0,
2012-07-11, 03:05:05,VALID,999.726,VALID,0,VALID,92.6236,VALID,0,VALID,23.8378,VALID,171,VALID,0,
2012-07-11, 03:06:05,VALID,999.762,VALID,0,VALID,92.7304,VALID,0,VALID,23.8165,VALID,171,VALID,0,
2012-07-11, 03:07:05,VALID,999.773,VALID,0,VALID,92.8296,VALID,0,VALID,23.8378,VALID,171,VALID,0.0679687,
2012-07-11, 03:08:05,VALID,999.748,VALID,0,VALID,92.822,VALID,0,VALID,23.8183,VALID,171,VALID,0,
2012-07-11, 03:09:05,VALID,999.737,VALID,0,VALID,93.0508,VALID,0,VALID,23.7988,VALID,171,VALID,0.321094,
2012-07-11, 03:10:05,VALID,999.731,VALID,0,VALID,93.234,VALID,0,VALID,23.7793,VALID,171,VALID,0.324219,
2012-07-11, 03:11:05,VALID,999.753,VALID,0,VALID,93.3331,VALID,0,VALID,23.7597,VALID,171,VALID,0.327344,
2012-07-11, 03:12:05,VALID,999.78,VALID,0,VALID,93.2492,VALID,0,VALID,23.7207,VALID,175,VALID,1.03242,
2012-07-11, 03:13:05,VALID,999.753,VALID,0,VALID,92.4634,VALID,0,VALID,23.7402,VALID,222,VALID,1.07813,
2012-07-11, 03:14:05,VALID,999.763,VALID,0,VALID,91.3418,VALID,0,VALID,23.8378,VALID,200,VALID,1.56562,
2012-07-11, 03:15:05,VALID,999.785,VALID,0,VALID,90.5254,VALID,0,VALID,23.8963,VALID,188,VALID,1.02578,
2012-07-11, 03:16:05,VALID,999.794,VALID,0,VALID,90.472,VALID,0,VALID,23.9159,VALID,195,VALID,1.125,
2012-07-11, 03:17:05,VALID,999.781,VALID,0,VALID,90.8688,VALID,0,VALID,23.9354,VALID,179,VALID,0.589063,
2012-07-11, 03:18:05,VALID,999.791,VALID,0,VALID,91.0519,VALID,0,VALID,23.914,VALID,179,VALID,0.578906,
2012-07-11, 03:19:05,VALID,999.791,VALID,0,VALID,91.1206,VALID,0,VALID,23.8963,VALID,179,VALID,0.0761719,
2012-07-11, 03:20:05,VALID,999.77,VALID,0,VALID,91.4334,VALID,0,VALID,23.8768,VALID,179,VALID,0.212109,
2012-07-11, 03:21:05,VALID,999.779,VALID,0,VALID,91.8454,VALID,0,VALID,23.8573,VALID,179,VALID,0.771875,
2012-07-11, 03:22:05,VALID,999.764,VALID,0,VALID,92.2574,VALID,0,VALID,23.8183,VALID,178,VALID,0.574609,
2012-07-11, 03:23:05,VALID,999.762,VALID,0,VALID,92.7151,VALID,0,VALID,23.7793,VALID,109,VALID,0.647266,
2012-07-11, 03:24:05,VALID,999.756,VALID,0,VALID,93.1653,VALID,0,VALID,23.7207,VALID,31,VALID,1.04023,
2012-07-11, 03:25:05,VALID,999.767,VALID,0,VALID,93.5544,VALID,0,VALID,23.6817,VALID,41,VALID,1.55313,
2012-07-11, 03:26:05,VALID,999.771,VALID,0,VALID,93.9054,VALID,0,VALID,23.6427,VALID,47,VALID,1.20781,
2012-07-11, 03:27:05,VALID,999.803,VALID,0,VALID,94.1877,VALID,0,VALID,23.6036,VALID,47,VALID,0.983203,
2012-07-11, 03:28:05,VALID,999.779,VALID,0,VALID,94.4165,VALID,0,VALID,23.5646,VALID,47,VALID,1.03945,
2012-07-11, 03:29:05,VALID,999.785,VALID,0,VALID,94.6302,VALID,0,VALID,23.5238,VALID,47,VALID,1.09844,
2012-07-11, 03:30:05,VALID,999.787,VALID,0.5,VALID,94.7751,VALID,0,VALID,23.5043,VALID,47,VALID,0.896875,
2012-07-11, 03:31:05,VALID,999.772,VALID,0,VALID,94.882,VALID,0,VALID,23.4848,VALID,47,VALID,1.14297,
2012-07-11, 03:32:05,VALID,999.755,VALID,0,VALID,94.9277,VALID,0,VALID,23.4475,VALID,37,VALID,1.42227,
2012-07-11, 03:33:05,VALID,999.771,VALID,0,VALID,94.9583,VALID,0,VALID,23.4085,VALID,37,VALID,1.16992,
2012-07-11, 03:34:05,VALID,999.763,VALID,0,VALID,94.9506,VALID,0,VALID,23.389,VALID,39,VALID,1.20117,
2012-07-11, 03:35:05,VALID,999.794,VALID,0,VALID,94.9735,VALID,0,VALID,23.3695,VALID,41,VALID,1.28594,
2012-07-11, 03:36:05,VALID,999.774,VALID,0,VALID,94.9964,VALID,0,VALID,23.389,VALID,42,VALID,0.947266,
2012-07-11, 03:37:05,VALID,999.793,VALID,0,VALID,95.0345,VALID,0,VALID,23.3695,VALID,42,VALID,0.950781,
2012-07-11, 03:38:05,VALID,999.798,VALID,0,VALID,95.1185,VALID,0,VALID,23.35,VALID,42,VALID,0.879297,
2012-07-11, 03:39:05,VALID,999.794,VALID,0,VALID,95.149,VALID,0,VALID,23.35,VALID,42,VALID,0.85625,
2012-07-11, 03:40:05,VALID,999.78,VALID,0,VALID,95.1871,VALID,0,VALID,23.3305,VALID,42,VALID,1.12422,
2012-07-11, 03:41:05,VALID,999.813,VALID,0,VALID,95.1948,VALID,0,VALID,23.311,VALID,51,VALID,1.04141,
2012-07-11, 03:42:05,VALID,999.811,VALID,0,VALID,95.2634,VALID,0,VALID,23.3305,VALID,51,VALID,0.893359,
2012-07-11, 03:43:05,VALID,999.839,VALID,0,VALID,95.2787,VALID,0,VALID,23.311,VALID,51,VALID,0.778125,
2012-07-11, 03:44:05,VALID,999.834,VALID,0,VALID,95.2787,VALID,0,VALID,23.2897,VALID,51,VALID,0.971094,
2012-07-11, 03:45:05,VALID,999.868,VALID,0,VALID,95.2863,VALID,0,VALID,23.2915,VALID,51,VALID,0.989062,
2012-07-11, 03:46:05,VALID,999.879,VALID,0,VALID,95.2863,VALID,0,VALID,23.2507,VALID,51,VALID,1.06719,